Total_Precipitation_Accumulation
2.26 2.46 2.45 2.33 2.33 2.41 2.61 2.81 2.89 2.54 2.24 2.03 1.71 1.38 1.40 1.49 1.66 1.51 1.42 1.36 1.22 1.09 1.00 0.99 1.05 1.13 1.21 1.32 1.48 1.60 1.67 1.66 1.72 1.79 1.88 2.03 2.15 2.28
2.16 2.26 2.31 2.25 2.30 2.34 2.55 2.69 2.79 2.80 2.40 2.10 1.91 1.50 1.43 1.29 1.47 1.31 1.29 1.41 1.30 1.18 1.07 0.96 0.93 0.98 1.03 1.13 1.26 1.35 1.40 1.40 1.42 1.46 1.47 1.49 1.56 1.67
1.87 2.00 2.12 2.29 2.25 2.08 2.20 2.33 2.45 2.63 2.35 2.10 2.01 1.82 1.78 1.66 1.62 1.56 1.41 1.38 1.25 1.20 1.13 1.07 1.02 0.99 1.00 1.04 1.11 1.20 1.28 1.34 1.34 1.33 1.38 1.41 1.39 1.42
1.86 2.01 2.01 2.08 2.16 2.08 2.05 2.06 2.23 2.46 2.42 2.25 2.28 2.22 2.06 1.93 1.89 1.79 1.47 1.34 1.33 1.24 1.08 0.99 0.95 0.93 0.92 0.96 1.05 1.12 1.20 1.28 1.34 1.33 1.30 1.32 1.38 1.43
1.90 1.86 1.79 1.92 2.07 2.23 2.25 2.16 2.18 2.32 2.49 2.40 2.34 2.43 2.22 2.04 2.16 2.00 1.79 1.79 1.42 1.34 1.19 1.01 0.95 0.91 0.89 0.89 0.94 1.01 1.09 1.18 1.25 1.30 1.31 1.35 1.38 1.44
1.63 1.66 1.65 1.68 1.84 2.23 2.28 2.33 2.33 2.34 2.49 2.49 2.48 2.53 2.56 2.36 2.38 2.18 2.05 1.92 1.68 1.39 1.34 1.13 1.06 1.04 0.99 0.92 0.92 1.00 1.12 1.20 1.28 1.35 1.37 1.39 1.43 1.45
1.30 1.31 1.31 1.39 1.45 1.61 1.69 1.97 2.20 2.29 2.33 2.43 2.46 2.53 2.55 2.65 2.41 2.25 2.21 2.15 2.01 1.75 1.69 1.35 1.20 1.13 1.05 1.00 0.96 1.02 1.16 1.34 1.46 1.56 1.61 1.65 1.70 1.72
1.17 1.16 1.14 1.19 1.25 1.26 1.25 1.41 1.68 1.94 2.22 2.43 2.48 2.50 2.55 2.66 2.65 2.50 2.40 2.27 2.17 1.95 1.95 1.84 1.68 1.66 1.45 1.15 1.12 1.10 1.16 1.26 1.44 1.58 1.66 1.74 1.83 1.91
1.14 1.17 1.02 0.98 1.06 1.01 1.12 1.17 1.25 1.42 1.57 1.94 2.19 2.22 2.34 2.47 2.68 2.63 2.59 2.53 2.40 2.27 2.29 2.27 2.14 2.05 1.67 1.48 1.43 1.16 1.09 1.13 1.25 1.42 1.63 1.75 1.90 2.02
1.16 1.18 1.14 1.10 1.11 1.14 1.20 1.15 1.08 1.12 1.20 1.29 1.40 1.60 1.84 2.17 2.45 2.58 2.71 2.74 2.73 2.62 2.61 2.67 2.47 2.36 2.07 1.74 1.50 1.24 1.08 1.04 1.12 1.25 1.44 1.66 1.84 2.00
1.14 1.14 1.18 1.12 1.15 1.08 1.10 1.13 1.10 1.06 1.09 1.18 1.15 1.27 1.40 1.61 1.91 2.11 2.30 2.51 2.75 2.84 2.78 2.82 2.71 2.58 2.61 2.41 1.92 1.60 1.31 1.14 1.08 1.12 1.19 1.30 1.51 1.76
1.35 1.33 1.30 1.20 1.14 1.07 1.01 1.08 1.09 1.06 1.12 1.12 1.08 1.06 1.08 1.19 1.41 1.57 1.74 2.00 2.25 2.49 2.38 2.43 2.55 2.75 2.97 2.82 2.41 1.99 1.63 1.41 1.24 1.13 1.15 1.17 1.26 1.32
1.54 1.44 1.34 1.24 1.04 0.97 0.94 0.96 0.99 1.04 1.15 1.21 1.21 1.16 1.13 1.11 1.17 1.32 1.52 1.63 1.75 1.80 1.81 2.04 2.17 2.41 2.64 2.70 2.59 2.39 2.14 1.84 1.59 1.38 1.26 1.26 1.31 1.26
1.58 1.45 1.33 1.20 0.98 0.88 0.83 0.80 0.81 0.80 0.86 0.97 1.04 1.08 1.10 1.05 1.07 1.21 1.42 1.58 1.57 1.51 1.53 1.76 1.88 1.97 2.09 2.10 2.15 2.13 2.11 2.04 1.93 1.83 1.69 1.63 1.47 1.44
1.36 1.33 1.24 1.11 0.97 0.85 0.84 0.80 0.73 0.72 0.81 0.89 0.93 1.02 1.06 1.03 1.05 1.18 1.34 1.53 1.55 1.42 1.35 1.44 1.58 1.66 1.76 1.73 1.67 1.72 1.85 1.94 1.98 2.00 2.08 2.11 1.97 1.83
1.20 1.26 1.20 1.09 0.95 0.91 0.92 0.84 0.77 0.83 0.92 0.91 0.94 1.02 1.11 1.15 1.17 1.17 1.29 1.40 1.49 1.44 1.38 1.36 1.47 1.65 1.68 1.62 1.64 1.60 1.67 1.85 1.90 1.95 2.14 2.33 2.44 2.37
1.33 1.31 1.30 1.20 1.11 1.08 1.11 1.11 1.10 1.06 1.00 1.00 1.06 1.12 1.19 1.23 1.23 1.25 1.31 1.36 1.35 1.32 1.36 1.45 1.55 1.71 1.76 1.78 1.81 1.70 1.68 1.65 1.68 1.88 2.14 2.27 2.26 2.26
1.39 1.38 1.45 1.45 1.39 1.33 1.30 1.29 1.26 1.19 1.16 1.18 1.22 1.23 1.23 1.24 1.23 1.30 1.40 1.42 1.39 1.34 1.37 1.42 1.55 1.71 1.82 1.76 1.57 1.55 1.60 1.57 1.59 1.77 1.90 1.98 1.96 1.92
1.33 1.41 1.53 1.59 1.61 1.58 1.50 1.40 1.35 1.28 1.22 1.22 1.22 1.24 1.23 1.28 1.32 1.36 1.43 1.48 1.47 1.45 1.48 1.56 1.58 1.63 1.65 1.56 1.45 1.31 1.42 1.48 1.52 1.58 1.61 1.62 1.63 1.62
1.36 1.51 1.61 1.64 1.70 1.70 1.58 1.51 1.43 1.35 1.31 1.32 1.35 1.39 1.39 1.40 1.40 1.38 1.39 1.42 1.47 1.53 1.57 1.58 1.62 1.62 1.56 1.45 1.42 1.35 1.16 1.22 1.30 1.36 1.40 1.41 1.36 1.35
1.49 1.64 1.70 1.69 1.61 1.55 1.51 1.48 1.42 1.37 1.35 1.36 1.36 1.36 1.36 1.38 1.42 1.45 1.47 1.54 1.51 1.49 1.46 1.36 1.40 1.55 1.67 1.75 1.59 1.41 1.28 1.15 1.17 1.18 1.24 1.34 1.33 1.25
1.37 1.47 1.57 1.62 1.58 1.52 1.48 1.41 1.36 1.33 1.31 1.30 1.30 1.31 1.36 1.37 1.35 1.39 1.43 1.40 1.39 1.39 1.32 1.35 1.49 1.58 1.68 1.74 1.60 1.48 1.44 1.35 1.25 1.22 1.15 1.12 1.12 1.10
1.29 1.40 1.46 1.45 1.40 1.36 1.37 1.33 1.30 1.31 1.28 1.27 1.31 1.34 1.36 1.35 1.27 1.25 1.26 1.26 1.26 1.32 1.41 1.50 1.62 1.60 1.53 1.60 1.66 1.60 1.50 1.44 1.38 1.30 1.15 0.98 0.85 0.78